sat.trackr.live / text

‹ back to catalog

STARLINK-2399

NORAD 47816 · 2021-018AF

PAYLOAD ACTIVE UNKNOWN

§ Identity

Operator
Country
US
Launch date
2021-03-11
Launch site
AFETR
Launch vehicle
Mass (kg)
RCS (m²)

Purposes: comms

External: N2YO · Heavens-Above · Gunter

§ Orbital elements

Epoch: 2026-09-19T22:37:00.106176Z

Period
94.01 min
Inclination
53.1593°
Eccentricity
0.0001291
Mean motion
15.31713380 rev/d
Perigee alt
469.8 km
Apogee alt
471.6 km
Semi-major
6,848.8 km
B*
6.0828e-5
RAAN
74.1694°
Arg perigee
89.4742°
Mean anomaly
270.6408°
Rev number
30,625

§ Raw data

STARLINK-23991 47816U 21018AF  26262.94236234  .00001524  00000+0  60828-4 0  99982 47816  53.1593  74.1694 0001291  89.4742 270.6408 15.31713380306257

JSON: /api/v1/satellites/47816 · /tle

For live sub-satellite position, see the globe view (requires WebGL).

§ Visibility from observer

Set your observer location to see the next 7 days of passes ≥ 10°. The values pass through the URL so the page stays shareable.

No JS? Fill the form by hand. The geolocation button needs JavaScript.